Flag for Poland Weather past 2 weeks in Lublin, Poland

Now
32 °F

Overcast.


Feels Like: 28 °F
Forecast: 30 / 39 °F
Wind: 3 mph from Northeast

Location: Lublin Radawiec

Current Time: Oct 23, 2014 at 11:16:04 PM

Latest Report: Oct 23, 2014 at 10:00 PM


Visibility: 10 mi

Pressure: 30.29 "Hg

Humidity: 89%

Dew point: 29 °F

Location of LublinLocation

Historic Weather in Lublin — Graph

°F

Lublin temperature yesterday

Maximum temperature yesterday: 55 °F (at 5:00 PM)
Minimum temperature yesterday: 47 °F (at 4:00 AM)
Average temperature yesterday: 51 °F

Past Weeks' High & Low Weather Summary

 TemperatureHumidityPressure
High72 °F (Oct 9, 2:00 PM)100% (Oct 16, 7:00 AM)30.40 "Hg (Oct 16, 7:00 AM)
Low32 °F (Oct 23, 9:00 PM)59% (Oct 9, 3:00 PM)29.61 "Hg (Oct 22, 1:00 PM)
Average54 °F88%29.93 "Hg
* Reported Midnight between Oct 8 and Oct 9 — Oct 23 10:00 PM, Lublin, Weather by CustomWeather, © 2014

Note: Actual official high and low records may vary slightly from our data, if they occured in-between our weather recording intervals... More about our weather records

Advertising

Lublin weather history for previous 24 hours

 ConditionsComfort  
Time TempWeatherWind HumidityBarometerVisibility
10:00 PM
Oct 23
32 °FOvercast.3 mph89%30.29 "Hg10 mi
9:00 PM32 °FLight rain. Overcast.5 mph90%30.27 "Hg6 mi
8:00 PM32 °FLight rain. Overcast.3 mph91%30.26 "Hg4 mi
7:00 PM33 °FLight rain. Low clouds.3 mph94%30.24 "Hg4 mi
6:00 PM34 °FDrizzle. Low clouds.5 mph96%30.21 "Hg4 mi
5:00 PM35 °FDrizzle. Low clouds.5 mph96%30.17 "Hg3 mi
4:00 PM36 °FDrizzle. Low clouds.5 mph95%30.15 "Hg6 mi
3:00 PM36 °FDrizzle. Low clouds.5 mph95%30.12 "Hg7 mi
2:00 PM36 °FLight rain. Low clouds.6 mph95%30.10 "Hg10 mi
1:00 PM36 °FLight rain. Low clouds.5 mph96%30.09 "Hg7 mi
12:00 PM35 °FLight rain. Low clouds.6 mph96%30.08 "Hg5 mi
11:00 AM35 °FLight rain. Low clouds.5 mph95%30.06 "Hg6 mi
10:00 AM35 °FLight rain. Low clouds.6 mph95%30.02 "Hg6 mi
9:00 AM36 °FLight rain. Low clouds.6 mph95%29.99 "Hg7 mi
8:00 AM37 °FLight rain. Low clouds.6 mph95%29.96 "Hg7 mi
7:00 AM38 °FLight rain. Low clouds.6 mph95%29.93 "Hg5 mi
6:00 AM39 °FLight rain. Low clouds.6 mph96%29.90 "Hg4 mi
5:00 AM40 °FLight rain. Low clouds.6 mph96%29.87 "Hg5 mi
4:00 AM41 °FLight rain. Low clouds.5 mph96%29.84 "Hg5 mi
3:00 AM43 °FLight rain. Low clouds.6 mph96%29.82 "Hg5 mi
2:00 AM44 °FLight rain. Low clouds.5 mph96%29.80 "Hg5 mi
1:00 AM45 °FLight rain. Low clouds.6 mph96%29.78 "Hg4 mi
12:00 AM47 °FLight rain. Low clouds.5 mph96%29.76 "Hg4 mi
11:00 PM
Oct 22
48 °FLight rain. Low clouds.5 mph96%29.74 "Hg3 mi
Weather by CustomWeather, © 2014

See weather overviewHow to use our weather pages